Location: Pasadena-CA
(34.1440°N, 118.1100°W)
Time: 10:26:31
(UTC-08:00)

BlueWalker 3 - Visible Passes

Search period start: 28 February 2024 00:00
Search period end: 09 March 2024 00:00
Orbit: 485 x 500 km, 53.2° (Epoch: 27 February)

Date Brightness Start Highest point End Pass type
(mag) Time Alt. Az. Time Alt. Az. Time Alt. Az.
29 Feb 4.8 19:57:03 10° NNW 19:57:07 10° NNW 19:57:07 10° NNW visible
01 Mar 4.2 19:33:13 10° NNW 19:34:23 15° N 19:34:23 15° N visible
02 Mar 3.7 19:09:22 10° N 19:11:43 17° NNE 19:11:43 17° NNE visible
03 Mar 3.7 18:45:30 10° N 18:48:02 17° NNE 18:49:07 15° NE visible
03 Mar 4.8 20:22:51 10° NW 20:23:37 15° NW 20:23:37 15° NW visible
04 Mar 3.7 18:21:36 10° N 18:24:05 16° NNE 18:26:33 10° ENE visible
04 Mar 3.6 19:58:55 10° NW 20:01:08 32° WNW 20:01:08 32° WNW visible
05 Mar 2.1 19:34:58 10° NW 19:38:42 64° SW 19:38:45 64° SW visible
06 Mar 2.1 19:11:01 10° NW 19:14:45 67° SW 19:16:31 29° SSE visible
07 Mar 2.1 18:47:02 10° NW 18:50:47 71° SW 18:54:27 10° SE visible
08 Mar 2.1 18:23:02 10° NW 18:26:48 75° SW 18:30:32 10° SE visible
